Location: Buch
(50.1863°N, 11.0141°E)
Time: 22:47:23
(UTC+00:00)

Cosmos 1703 - Pass Details

Date: 18 January 2020
Orbit: 524 x 541 km, 82.5° (Epoch: 18 February)

Event Time Altitude Azimuth Distance (km) Brightness Sun altitude
Exits shadow 05:21:26 - 352° (N) 2,398 6.4 -16.4°
Reaches altitude 10° 05:22:51 10° 353° (N) 1,813 5.8 -16.2°
Maximum altitude 05:26:50 73° 79° (E) 569 3.5 -15.6°
Drops below altitude 10° 05:30:46 10° 164° (SSE) 1,789 6.3 -15.0°
Sets 05:32:54 0° 167° (SSE) 2,672 7.2 -14.7°
